Cloud_Cover
10 49 45 97 95 100 64 54 57 100 94 100 100 100 100 100 100 100 100 100 98 100 98 64 5 4 94 28 5 5 92 100 100 100 100 100 100 97 55 53 9 5 0 0 0 0 0
12 48 99 100 100 100 45 31 43 99 42 11 58 100 100 100 100 100 100 100 100 100 100 5 0 0 5 48 5 4 30 100 100 100 100 100 100 100 95 96 13 5 5 4 4 1 0
7 80 100 99 100 99 86 21 19 5 6 4 5 100 100 100 100 100 100 100 94 53 5 5 2 0 5 5 27 5 7 72 99 100 100 100 100 90 40 44 7 5 2 5 5 3 0
7 100 100 100 100 100 100 7 3 5 5 1 98 100 100 100 100 100 100 100 100 49 5 5 5 0 0 2 17 30 5 8 100 100 100 90 95 100 94 28 5 5 3 3 5 5 2
2 53 100 99 100 100 98 94 63 0 0 4 86 100 100 100 100 100 100 100 100 56 14 4 4 0 0 0 27 59 47 16 85 90 100 57 21 26 5 12 48 36 13 1 3 30 24
0 4 100 100 100 100 100 88 82 36 10 1 100 100 100 100 100 100 100 100 100 98 18 0 0 0 0 0 0 58 98 73 53 66 40 6 5 5 1 1 3 7 7 11 10 8 1
8 5 4 100 100 99 100 99 100 77 76 36 100 100 100 100 100 100 100 100 89 54 4 1 0 0 0 0 0 0 36 59 23 5 5 5 0 0 0 0 0 3 5 4 1 0 0
85 100 7 12 77 46 98 80 56 26 5 16 68 100 100 100 100 100 100 100 89 59 44 0 0 0 0 0 0 0 3 4 3 5 5 2 0 5 5 5 13 22 6 5 5 5 4
40 100 47 1 100 49 5 86 100 5 7 100 100 100 100 100 100 99 95 97 75 5 3 0 0 1 5 0 0 0 0 0 0 0 1 5 5 1 5 74 100 100 56 26 22 5 3
9 2 100 2 37 14 3 3 9 11 68 52 43 100 97 93 100 31 16 27 3 0 3 14 84 54 10 5 5 0 0 0 0 0 0 0 0 0 0 0 0 3 5 5 5 50 61
0 5 0 36 0 3 0 0 2 0 4 5 5 5 5 1 4 66 9 0 0 0 0 0 1 2 0 0 0 0 0 0 0 0 0 0 0 0 0 0 0 0 4 5 5 13 73
76 0 5 2 0 0 0 0 0 0 0 0 0 0 2 0 0 0 0 0 0 1 0 0 0 0 0 0 0 0 0 0 0 0 0 0 0 0 0 0 0 0 2 8 7 100 66
99 8 2 5 0 0 0 0 0 0 0 0 0 0 0 0 0 0 0 0 2 2 0 0 0 0 0 0 0 0 1 0 0 1 47 0 1 0 0 4 42 5 5 36 33 76 5
98 82 5 4 3 0 0 0 0 0 0 0 0 0 0 0 0 0 0 0 1 0 0 0 0 0 0 0 0 0 3 0 0 0 3 3 1 0 2 5 1 12 18 11 79 76 5
40 100 72 0 0 2 0 0 0 0 0 0 0 0 0 0 0 0 0 4 3 0 0 0 0 0 0 0 0 0 0 0 0 0 1 4 0 0 2 0 0 4 5 4 58 5 66
60 65 100 52 5 2 1 0 0 0 0 0 0 0 0 0 0 0 0 1 0 0 0 0 0 0 0 0 0 0 0 0 0 0 0 3 4 0 0 0 0 0 1 4 38 6 28
100 44 46 99 86 5 5 4 1 4 0 0 0 0 0 0 0 0 0 0 0 0 0 0 0 0 0 0 0 0 0 0 0 0 0 0 2 2 0 0 0 2 2 1 2 4 5
100 100 50 46 100 7 88 5 5 5 0 0 0 29 0 0 0 0 0 0 0 0 0 0 0 0 0 0 0 0 0 0 0 0 0 0 0 2 0 0 0 0 0 0 5 0 5
100 100 100 53 11 100 26 44 55 5 4 0 0 0 0 0 0 0 0 0 0 0 0 0 0 0 0 0 0 0 0 0 0 0 0 0 0 3 0 0 0 0 0 0 0 1 4
100 100 100 96 82 90 100 88 100 69 10 5 3 2 0 0 0 0 0 0 0 0 0 0 0 0 0 0 0 0 0 0 0 0 0 0 0 0 0 0 0 0 0 0 0 5 3
100 100 100 100 100 98 100 44 100 43 99 8 24 26 0 0 0 0 0 0 0 0 0 0 0 0 0 0 0 0 0 0 0 0 0 0 2 0 0 0 0 0 0 0 0 0 2
100 100 100 100 100 100 96 100 100 100 8 97 64 98 16 5 5 0 0 0 0 0 0 0 0 0 0 0 0 0 0 0 0 0 0 0 4 0 0 0 0 0 0 0 2 5 5
100 100 100 100 100 100 100 100 100 98 29 8 99 60 69 80 2 5 5 5 5 5 0 1 1 0 0 0 0 0 0 0 0 0 0 0 0 1 5 0 0 0 0 0 0 0 4
100 100 100 100 100 100 100 100 100 100 70 71 100 88 47 100 97 5 5 6 5 5 5 5 5 2 4 0 0 0 0 0 0 0 0 0 0 4 3 2 0 0 0 0 0 0 0
100 100 100 100 100 100 100 100 100 100 99 32 97 81 100 35 100 31 12 45 37 67 5 5 5 36 5 6 5 5 1 0 0 0 0 0 0 3 5 4 0 0 0 0 0 0 0
100 100 100 99 100 100 100 100 100 100 100 100 100 100 100 65 70 100 100 25 29 72 73 5 8 5 6 66 92 82 100 19 5 5 4 3 5 4 5 5 4 0 0 0 4 0 0
100 100 100 100 100 100 100 100 100 100 100 100 100 100 100 100 100 100 90 95 56 85 54 11 5 5 80 71 100 100 65 100 100 58 9 46 73 5 97 74 5 1 4 3 5 44 5
100 100 100 100 100 100 100 100 100 100 100 100 100 100 100 100 100 100 100 100 97 99 100 100 73 6 58 36 100 100 100 100 92 100 68 100 100 52 97 100 42 0 4 5 12 5 8
100 100 100 100 100 100 100 100 100 100 100 100 100 100 100 100 100 100 100 100 100 100 100 100 100 100 100 100 63 100 100 74 100 100 85 100 100 28 37 84 4 91 0 0 4 18 6